This demonstration page uses our WeatherBlox Daily Observations layout. Learn more.

Left ArrowRight Arrow

34.74481, -87.66753

Hourly Observations for December 15, 2018

Temp ( °F °C ) Dew Point ( °F °C ) Humidity (%) Winds ( mph kmh ) Pressure ( in mb ) Visibility ( mi km ) Precip ( " mm )
12:28 am 00:28 Cloudy 51 10.6 47 8.3 86 86 SW 8 13 29.85 1011 10 16 0.00 0.00
12:53 am 00:53 Cloudy 51 10.6 46 7.8 83 83 SSW 8 13 29.81 1010 10 16 0.00 0.00
1:53 am 01:53 Cloudy 50 10 45 7.2 83 83 SW 7 11 29.83 1010 10 16 0.00 0.00
2:53 am 02:53 Cloudy 49 9.4 44 6.7 83 83 Calm 29.83 1010 10 16 0.00 0.00
3:53 am 03:53 Cloudy 49 9.4 45 7.2 86 86 S 5 7 29.83 1010 10 16 0.00 0.00
4:53 am 04:53 Cloudy 48 8.9 44 6.7 86 86 WNW 3 6 29.84 1011 10 16 0.00 0.00
5:53 am 05:53 Cloudy 48 8.9 44 6.7 86 86 Calm 29.88 1012 10 16 0.00 0.00
6:53 am 06:53 Cloudy 46 7.8 43 6.1 89 89 SSE 3 6 29.88 1012 10 16 0.00 0.00
7:53 am 07:53 Mostly Sunny 48 8.9 44 6.7 86 86 SSE 5 7 29.89 1012 10 16 0.00 0.00
8:19 am 08:19 Mostly Cloudy 49 9.4 43 6.1 80 80 SSW 5 7 29.91 1013 10 16 0.00 0.00
8:41 am 08:41 Cloudy 49 9.4 42 5.6 77 77 S 5 7 29.91 1013 10 16 0.00 0.00
8:53 am 08:53 Cloudy 50 10 43 6.1 77 77 VRB 5 7 29.91 1013 10 16 0.00 0.00
9:10 am 09:10 Cloudy with Light Rain 50 10 43 6.1 77 77 S 8 13 29.91 1013 10 16 0.00 0.03
9:29 am 09:29 Cloudy 50 10 43 6.1 77 77 SSW 8 13 29.94 1014 10 16 0.00 0.03
9:53 am 09:53 Mostly Cloudy 50 10 43 6.1 77 77 SW 7 11 29.92 1013 10 16 0.00 0.03
10:02 am 10:02 Mostly Cloudy 51 10.6 43 6.1 74 74 SW 9 15 29.94 1014 9 14 0.00 0.00
10:40 am 10:40 Mostly Cloudy with Light Rain 52 11.1 43 6.1 72 72 SW 12 19 29.91 1013 10 16 0.00 0.03
10:53 am 10:53 Mostly Cloudy 53 11.7 43 6.1 69 69 WSW 10 17 29.91 1013 10 16 0.00 0.03
11:53 am 11:53 Mostly Cloudy 53 11.7 41 5 64 64 SW 10 17 29.90 1012 10 16 0.00 0.03
12:53 pm 12:53 Cloudy 53 11.7 42 5.6 66 66 WSW 9 15 29.91 1013 10 16 0.00 0.03
1:07 pm 13:07 Cloudy 52 11.1 43 6.1 72 72 SW 9 15 29.91 1013 10 16 0.00 0.00
1:53 pm 13:53 Cloudy with Light Rain 51 10.6 44 6.7 77 77 WSW 12 19 29.92 1013 10 16 0.00 0.03
2:53 pm 14:53 Cloudy with Rain 50 10 46 7.8 86 86 WSW 5 7 29.93 1014 9 14 0.00 0.00
3:00 pm 15:00 Cloudy with Rain 50 10 46 7.8 86 86 WSW 6 9 29.94 1014 8 13 0.00 0.00
3:35 pm 15:35 Cloudy with Mist and Fog 49 9.4 47 8.3 93 93 W 6 9 29.94 1014 6 10 0.00 0.00
3:43 pm 15:43 Cloudy with Mist and Fog 49 9.4 47 8.3 93 93 WSW 5 7 29.97 1015 3 5 0.00 0.00
3:53 pm 15:53 Cloudy with Mist and Fog 49 9.4 47 8.3 93 93 W 5 7 29.96 1014 4 6 0.00 0.00
4:53 pm 16:53 Cloudy 49 9.4 47 8.3 93 93 W 3 6 29.97 1015 10 16 0.00 0.00
5:24 pm 17:24 Cloudy 49 9.4 47 8.3 93 93 W 5 7 29.97 1015 9 14 0.00 0.00
6:44 pm 18:44 Cloudy with Mist and Fog 50 10 47 8.3 89 89 W 7 11 30.00 1016 6 10 0.00 0.00
6:53 pm 18:53 Cloudy with Mist and Fog 49 9.4 47 8.3 93 93 W 7 11 30.01 1016 3 4 0.00 0.00
7:15 pm 19:15 Cloudy with Mist and Fog 49 9.4 47 8.3 93 93 W 6 9 30.03 1017 3 5 0.00 0.00
7:26 pm 19:26 Cloudy with Mist and Fog 49 9.4 47 8.3 93 93 W 7 11 30.03 1017 3 4 0.00 0.00
7:37 pm 19:37 Cloudy with Mist and Fog 49 9.4 47 8.3 93 93 W 7 11 30.03 1017 4 6 0.00 0.00
7:53 pm 19:53 Cloudy 49 9.4 47 8.3 93 93 W 6 9 30.03 1017 10 16 0.00 0.00
8:53 pm 20:53 Cloudy 50 10 47 8.3 89 89 W 7 11 30.05 1018 10 16 0.00 0.00
9:53 pm 21:53 Cloudy 50 10 47 8.3 89 89 W 8 13 30.06 1018 10 16 0.00 0.00
10:53 pm 22:53 Cloudy with Mist and Fog 49 9.4 47 8.3 93 93 W 6 9 30.07 1018 4 6 0.00 0.00

Powered by AerisWeather